Page, AZ

12:41 AM MST on December 18, 2017 (GMT -0700)
Page Municipal

Weather History for KPGA - July, 2013

Change the Weather History Date:

Sunday, July 14, 2013

  Actual Average Record
Temperature  
Mean Temperature 87 °F -  
Max Temperature 99 °F 97 °F 107 °F (2002)
Min Temperature 75 °F 69 °F 61 °F (1962)
Cooling Degree Days 22    
Growing Degree Days 37 (Base 50)    
Moisture  
Dew Point 50 °F    
Average Humidity 29    
Maximum Humidity 48    
Minimum Humidity 12    
Precipitation  
Precipitation 0.00 in - - ()
Sea Level Pressure  
Sea Level Pressure 29.83 in    
Wind  
Wind Speed 4 mph (WNW)    
Max Wind Speed 16 mph    
Max Gust Speed 20 mph    
Visibility 10 miles    
Events      
Averages and records for this station are not official NWS values.
T = Trace of Precipitation, MM = Missing Value Source: NWS Daily Summary

Daily Weather History Graph

Daily Weather History Graph

Search for Another Location

Airport or City:

Trip Planner

Search our weather history database for the weather conditions in past years. The results will help you decide how hot, cold, wet, or windy it might be!

Date:

Astronomy

Jul. 14, 2013 Rise Set
Actual Time 5:17 AM MST 7:45 PM MST
Civil Twilight 4:47 AM MST 8:15 PM MST
Nautical Twilight 4:10 AM MST 8:52 PM MST
Astronomical Twilight 3:29 AM MST 9:33 PM MST
Moon 11:27 AM MST (7/14) 11:10 PM MST (7/14)
Length of Visible Light 15h 27m
Length of Day
14h 27m
Waxing Crescent, 36% of the Moon is Illuminated
Jul 14
Waxing Crescent
Jul 15
First Quarter
Jul 22
Full
Jul 29
Last Quarter
Aug 6
New

Hourly Weather History & Observations

Time (MST) Temp. Heat Index Dew Point Humidity Pressure Visibility Wind Dir Wind Speed Gust Speed Precip Events Conditions
12:53 AM 80.1 °F 80.1 °F 55.0 °F 42% 29.86 in 10.0 mi SSW 3.5 mph - N/A   Clear
1:53 AM 80.1 °F - 51.1 °F 36% 29.86 in 10.0 mi South 5.8 mph - N/A   Clear
2:53 AM 78.1 °F - 52.0 °F 40% 29.86 in 10.0 mi SW 5.8 mph - N/A   Clear
3:53 AM 77.0 °F - 53.1 °F 43% 29.87 in 10.0 mi SSW 3.5 mph - N/A   Clear
4:53 AM 77.0 °F - 54.0 °F 45% 29.89 in 10.0 mi West 3.5 mph - N/A   Clear
5:53 AM 77.0 °F - 55.0 °F 47% 29.91 in 10.0 mi WSW 3.5 mph - N/A   Clear
6:53 AM 77.0 °F - 55.9 °F 48% 29.92 in 10.0 mi Calm Calm - N/A   Clear
7:53 AM 78.1 °F - 55.9 °F 46% 29.92 in 10.0 mi Calm Calm - N/A   Clear
8:53 AM 84.9 °F 83.2 °F 53.1 °F 33% 29.91 in 10.0 mi NNE 3.5 mph - N/A   Clear
9:53 AM 86.0 °F - 52.0 °F 31% 29.90 in 10.0 mi North 4.6 mph - N/A   Clear
10:53 AM 90.0 °F - 51.1 °F 26% 29.88 in 10.0 mi Variable 3.5 mph - N/A   Clear
11:53 AM 91.0 °F - 50.0 °F 24% 29.86 in 10.0 mi Calm Calm - N/A   Clear
12:53 PM 95.0 °F - 46.9 °F 19% 29.83 in 10.0 mi Variable 6.9 mph - N/A   Clear
1:53 PM 95.0 °F - 46.0 °F 19% 29.80 in 10.0 mi Calm Calm - N/A   Clear
2:53 PM 97.0 °F - 43.0 °F 16% 29.77 in 10.0 mi Variable 4.6 mph - N/A   Clear
3:53 PM 97.0 °F - 45.0 °F 17% 29.75 in 10.0 mi WNW 10.4 mph 18.4 mph N/A   Partly Cloudy
4:53 PM 95.0 °F - 48.0 °F 20% 29.75 in 10.0 mi WNW 8.1 mph 19.6 mph N/A   Clear
5:53 PM 93.9 °F - 48.9 °F 21% 29.75 in 10.0 mi WNW 10.4 mph 19.6 mph N/A   Clear
6:53 PM 93.0 °F - 48.0 °F 21% 29.76 in 10.0 mi NW 6.9 mph - N/A   Clear
7:53 PM 91.9 °F - 50.0 °F 24% 29.77 in 10.0 mi North 8.1 mph - N/A   Clear
8:53 PM 90.0 °F - 46.9 °F 23% 29.78 in 10.0 mi NNW 6.9 mph - N/A   Clear
9:53 PM 88.0 °F - 48.9 °F 26% 29.79 in 10.0 mi WNW 3.5 mph - N/A   Clear
10:53 PM 87.1 °F - 50.0 °F 28% 29.78 in 10.0 mi WSW 3.5 mph - N/A   Scattered Clouds
11:53 PM 86.0 °F - 51.1 °F 30% 29.79 in 10.0 mi Calm Calm - N/A   Clear